Flag for Canada Weather past 2 weeks in Gatineau, Quebec, Canada

Now
68 °F

Passing clouds.


Feels Like: 68 °F
Forecast: 63 / 80 °F
Wind: 5 mph from Southwest

Location: Ottawa Int'L. Ont.

Current Time: Jul 30, 2015 at 11:29:02 PM

Latest Report: Jul 30, 2015 at 11:00 PM


Visibility: 15 mi

Pressure: 29.73 "Hg

Humidity: 64%

Dew point: 55 °F

Location of GatineauLocation

Historic Weather in Gatineau — Graph

°F

Gatineau temperature yesterday

Maximum temperature yesterday: 93 °F (at 2:00 PM)
Minimum temperature yesterday: 68 °F (at 3:00 AM)
Average temperature yesterday: 79 °F

Past Weeks' High & Low Weather Summary

 TemperatureHumidityPressure
High93 °F (Jul 28, 4:00 PM)100% (Jul 17, 11:00 PM)30.16 "Hg (Jul 17, 11:00 PM)
Low48 °F (Jul 17, 5:00 AM)36% (Jul 16, 4:00 PM)29.53 "Hg (Jul 21, 1:00 PM)
Average71 °F73%29.85 "Hg
* Reported Jul 15 10:00 PM — Jul 30 10:00 PM, Gatineau, Weather by CustomWeather, © 2015

Note: Actual official high and low records may vary slightly from our data, if they occured in-between our weather recording intervals... More about our weather records

Advertising

Gatineau weather history for previous 24 hours

 ConditionsComfort  
Time TempWeatherWind HumidityBarometerVisibility
10:00 PM
Thu, Jul 30
72 °FClear.9 mph57%29.73 "Hg15 mi
9:00 PM77 °FPassing clouds.14 mph44%29.72 "Hg15 mi
8:00 PM81 °FPassing clouds.16 mph42%29.69 "Hg15 mi
7:00 PM82 °FScattered clouds.15 mph42%29.68 "Hg15 mi
6:00 PM84 °FScattered clouds.16 mph43%29.68 "Hg15 mi
5:00 PM84 °FScattered clouds.13 mph45%29.68 "Hg15 mi
4:00 PM82 °FPartly sunny.8 mph48%29.69 "Hg15 mi
3:00 PM84 °FPartly sunny.12 mph45%29.70 "Hg15 mi
2:00 PM86 °FScattered clouds.15 mph46%29.70 "Hg15 mi
1:00 PM84 °FScattered clouds.13 mph48%29.72 "Hg15 mi
12:00 PM82 °FScattered clouds.9 mph58%29.72 "Hg15 mi
11:00 AM79 °FScattered clouds.7 mph74%29.73 "Hg15 mi
10:00 AM73 °FPartly sunny.9 mph89%29.73 "Hg15 mi
9:04 AM72 °FLight rain. Overcast.7 mph94%29.74 "Hg8 mi
8:00 AM70 °FLight rain. Overcast.8 mph94%29.74 "Hg4 mi
7:00 AM70 °FBroken clouds.6 mph88%29.73 "Hg15 mi
6:00 AM70 °FPassing clouds.8 mph88%29.73 "Hg15 mi
5:00 AM68 °FPassing clouds.5 mph88%29.74 "Hg15 mi
4:00 AM70 °FPassing clouds.3 mph78%29.75 "Hg15 mi
3:00 AM70 °FClear.5 mph78%29.76 "Hg15 mi
2:00 AM70 °FClear.6 mph73%29.78 "Hg15 mi
1:00 AM70 °FPassing clouds.5 mph78%29.80 "Hg15 mi
12:00 AM73 °FPassing clouds.5 mph74%29.81 "Hg15 mi
11:00 PM
Wed, Jul 29
73 °FClear.5 mph78%29.83 "Hg15 mi
Weather by CustomWeather, © 2015

See weather overviewHow to use our weather pages